Location: Solon
(41.3849°N, 81.4081°W)
Time: 16:24:15
(UTC-04:00)

CZ-2C R/B - Visible Passes

Search period start: 23 September 2014 00:00
Search period end: 03 October 2014 00:00
Orbit: 706 x 909 km, 98.1° (Epoch: 22 September)

Date Brightness Start Highest point End Pass type
(mag) Time Alt. Az. Time Alt. Az. Time Alt. Az.
23 Sep 5.6 03:01:30 17° ENE 03:01:30 17° ENE 03:04:48 10° NNE visible
23 Sep 4.0 04:42:36 39° NNW 04:42:36 39° NNW 04:46:06 10° NNW visible
24 Sep 6.0 02:36:54 11° ENE 02:37:15 11° NE 02:38:29 10° NE visible
24 Sep 4.2 04:18:00 41° N 04:18:00 41° N 04:21:39 10° N visible
24 Sep 5.2 05:59:06 11° WNW 05:59:06 11° WNW 05:59:34 10° NW visible
25 Sep 4.6 03:53:24 35° NNE 03:53:24 35° NNE 03:57:01 10° N visible
25 Sep 4.9 05:34:30 17° NW 05:34:30 17° NW 05:36:17 10° NW visible
26 Sep 5.1 03:28:48 26° NE 03:28:48 26° NE 03:32:11 10° N visible
26 Sep 4.6 05:09:54 24° NW 05:09:54 24° NW 05:12:22 10° NNW visible
27 Sep 5.6 03:04:12 18° NE 03:04:12 18° NE 03:07:02 10° NNE visible
27 Sep 4.4 04:45:18 30° NNW 04:45:18 30° NNW 04:48:09 10° NNW visible
28 Sep 6.0 02:39:37 12° NE 02:39:37 12° NE 02:41:06 10° NE visible
28 Sep 4.5 04:20:43 32° N 04:20:43 32° N 04:23:44 10° N visible
29 Sep 4.8 03:56:08 29° NNE 03:56:08 29° NNE 03:59:07 10° N visible
29 Sep 5.1 05:37:14 14° NW 05:37:14 14° NW 05:38:16 10° NW visible
30 Sep 5.3 03:31:34 23° NNE 03:31:34 23° NNE 03:34:19 10° N visible
30 Sep 4.9 05:12:40 19° NW 05:12:40 19° NW 05:14:23 10° NNW visible
01 Oct 5.7 03:06:59 17° NE 03:06:59 17° NE 03:09:13 10° NNE visible
01 Oct 4.8 04:48:05 23° NNW 04:48:05 23° NNW 04:50:12 10° NNW visible
02 Oct 6.1 02:42:25 12° NE 02:42:25 12° NE 02:43:31 10° NNE visible
02 Oct 4.9 04:23:31 25° N 04:23:31 25° N 04:25:48 10° N visible
